RH
15 15 15 19 30 32 34 38 51 85 85 100 84 95 88 92 93 90 100 100 96 78 98 74 69 60 40 36 12 10 11 12 7 3 2 2 1 1 1 1 1 2 2 2 2 2 3
20 20 19 21 17 16 14 14 17 34 44 49 90 100 97 94 89 93 84 81 96 86 100 86 73 46 38 23 10 10 12 11 6 3 2 2 1 1 1 2 2 2 2 2 2 2 4
31 30 29 26 29 30 26 16 10 10 9 13 27 48 82 60 93 89 97 91 100 100 90 83 74 35 24 10 7 12 13 10 5 3 2 2 1 1 2 2 2 2 2 2 2 3 5
51 51 50 42 35 39 40 19 18 13 9 10 10 12 26 45 75 92 100 84 90 99 93 91 78 33 15 8 8 10 13 8 4 2 2 2 1 2 1 1 1 2 2 2 3 4 6
74 68 58 57 52 46 45 41 22 16 14 12 11 11 14 14 24 51 65 69 70 89 88 91 58 19 12 8 8 11 9 5 3 2 2 1 1 1 1 1 2 2 3 4 4 5 5
66 75 69 66 47 38 35 43 37 19 17 14 12 9 12 13 16 23 28 35 53 58 89 55 25 17 9 8 10 10 6 4 2 2 2 2 1 1 1 1 2 3 4 4 5 5 6
88 85 78 60 41 33 19 28 38 22 13 16 9 8 10 10 8 17 20 23 25 30 29 20 18 10 9 11 11 7 4 2 2 2 2 1 1 1 1 2 3 5 4 5 5 5 12
77 76 70 58 46 34 25 20 20 22 13 11 11 8 9 8 7 13 14 19 18 23 23 23 12 8 11 12 9 6 4 3 2 2 2 1 1 1 2 2 3 4 6 6 5 4 6
92 86 76 56 40 29 20 14 10 12 9 8 9 8 8 7 7 13 15 19 19 24 19 18 12 9 13 13 8 5 4 3 2 2 2 2 2 2 2 3 4 6 7 7 6 6 9
92 88 75 55 30 26 15 9 7 6 7 7 7 8 8 8 9 15 19 17 21 22 22 15 8 12 16 10 6 5 3 3 2 2 2 2 2 2 3 4 6 7 7 6 6 7 7
99 82 54 42 32 16 9 6 5 5 6 6 6 7 7 8 12 17 21 20 21 20 22 14 13 18 16 10 7 5 3 2 2 2 2 2 3 3 4 5 7 8 8 8 7 10 14
90 68 39 28 17 8 6 4 4 4 4 5 6 6 6 9 12 17 19 22 23 35 29 20 16 23 15 10 7 5 3 2 2 3 3 3 3 4 5 6 8 8 8 9 11 26 31
66 40 24 19 9 4 3 2 2 3 4 5 6 5 6 13 14 15 18 24 41 60 48 21 24 21 16 10 7 4 3 3 3 3 3 4 4 5 7 8 11 10 11 14 24 25 23
58 35 19 11 4 2 2 1 2 2 3 5 5 4 9 15 14 16 22 50 83 86 49 20 30 23 15 9 6 4 4 3 3 4 4 5 6 9 11 11 12 11 13 24 30 22 38
40 22 15 5 2 2 1 1 1 2 3 3 2 5 10 11 12 17 35 77 100 93 37 28 31 25 14 7 5 4 4 3 4 5 5 5 6 8 12 12 13 13 14 25 28 32 52
20 15 8 2 2 1 1 1 2 2 2 2 3 7 9 8 11 21 56 100 100 78 32 40 34 22 10 6 5 4 4 4 4 5 6 6 6 8 11 13 13 14 18 21 23 20 35
20 10 3 2 2 1 1 2 2 2 2 3 5 8 11 9 13 34 86 100 99 70 44 40 35 18 9 6 4 4 4 4 4 5 6 8 8 8 10 13 13 11 11 12 13 12 11
12 6 2 2 2 1 2 2 2 2 3 5 7 7 9 12 20 57 93 100 98 83 59 36 32 17 10 7 4 4 4 5 6 6 7 7 8 10 12 12 15 15 15 15 15 15 18
10 3 2 2 2 2 2 2 2 3 5 6 11 9 9 11 30 75 100 100 96 82 58 39 34 18 12 9 6 5 5 4 6 8 8 8 8 9 10 11 13 13 19 21 22 22 23
6 2 2 2 2 2 3 3 4 5 7 8 10 12 11 12 43 84 100 93 96 77 57 48 33 22 15 10 8 6 5 6 8 9 11 10 9 10 10 10 11 14 17 17 20 25 24
3 2 2 2 3 3 3 4 5 5 7 8 16 13 14 39 70 100 81 95 90 67 67 54 39 27 19 13 11 10 9 9 11 12 13 14 15 14 12 13 14 14 14 15 20 22 27
2 2 2 3 4 4 4 4 6 7 8 11 14 13 22 67 86 75 81 92 81 67 66 56 46 34 24 19 17 14 11 11 14 17 18 21 24 24 23 25 26 24 21 20 18 17 18
2 2 2 4 4 6 5 6 7 10 13 15 12 13 42 77 80 63 84 91 78 68 68 62 55 42 31 26 24 21 19 17 16 17 20 25 23 27 29 27 32 34 31 32 30 30 26
2 2 3 5 5 6 6 7 9 12 16 16 16 31 58 76 85 76 85 86 73 70 68 64 63 50 41 37 35 32 32 32 29 27 25 25 28 35 42 41 42 41 40 40 40 50 50
2 3 4 6 6 6 8 9 12 16 17 18 18 36 54 91 84 84 84 82 74 72 70 69 66 64 57 45 40 38 39 38 36 36 37 35 32 28 32 34 36 36 33 37 37 37 38
4 4 4 8 7 7 8 9 11 13 14 15 33 54 80 86 86 82 86 82 72 63 71 72 66 64 60 59 54 51 47 44 39 40 41 43 42 38 44 44 40 43 40 44 46 41 38
5 4 7 9 8 8 8 9 12 13 20 38 61 79 92 87 84 84 86 82 71 69 66 77 74 69 62 58 58 57 51 50 48 47 45 48 52 47 43 45 55 60 56 57 50 55 54
6 6 11 10 10 8 10 10 23 29 44 59 82 96 90 100 85 88 98 86 78 75 77 79 83 77 68 61 57 60 57 52 48 49 52 55 54 60 56 55 58 59 61 63 70 72 73
7 8 14 14 12 10 16 24 37 58 65 82 88 99 98 100 91 93 93 87 78 76 84 88 86 84 80 74 68 64 67 70 67 58 56 55 59 62 64 67 61 59 63 66 71 75 67
Wind_Speed
69 70 81 88 93 101 105 109 110 106 106 105 103 97 95 90 92 91 86 91 89 88 88 87 92 97 88 89 81 67 66 69 66 67 68 70 70 63 61 57 50 51 50 50 53 57 60
66 66 71 70 69 76 79 90 102 108 110 108 102 102 100 100 93 93 94 91 92 88 90 89 96 91 87 81 75 69 71 70 67 69 71 70 64 62 54 44 44 48 51 51 55 56 62
69 69 70 67 69 71 72 72 81 88 91 99 107 107 101 97 91 93 96 95 91 90 91 94 96 89 80 71 66 71 71 71 68 70 71 64 60 51 42 40 45 47 53 55 55 55 58
83 83 83 77 70 71 71 70 69 79 86 88 90 96 107 107 98 97 99 97 92 92 93 96 96 91 78 67 64 68 70 67 67 66 62 59 50 41 40 39 43 47 54 52 54 55 62
82 83 82 79 77 76 72 70 74 68 74 78 76 82 89 93 94 88 94 97 96 96 94 93 95 86 73 66 63 66 64 64 64 62 61 50 42 37 35 35 39 46 50 52 57 59 62
84 84 85 84 81 74 67 63 68 66 65 72 76 70 75 78 83 83 88 89 93 93 92 94 88 78 65 66 65 63 59 62 60 58 52 44 35 32 29 28 32 42 51 55 56 57 57
81 84 87 86 84 79 73 61 58 66 62 63 67 68 72 68 61 71 75 82 86 85 85 80 76 70 64 61 60 56 55 55 59 51 42 35 28 26 24 26 35 48 55 59 61 64 67
87 89 90 92 90 87 81 67 56 63 66 57 64 60 67 66 60 65 66 66 65 66 69 71 67 61 60 54 53 52 55 57 54 43 34 28 24 19 19 26 39 48 55 58 61 58 70
90 93 97 98 96 91 82 66 59 58 58 53 58 57 59 62 58 59 63 59 52 54 57 57 60 53 48 48 48 50 54 53 45 34 28 21 15 11 13 23 35 47 54 56 56 58 67
99 100 102 101 97 91 82 70 63 55 51 47 46 49 51 52 46 55 57 54 49 48 50 49 49 43 41 42 44 49 51 47 36 28 22 16 9 6 15 25 38 46 51 50 52 55 60
97 99 105 103 99 90 77 69 61 52 45 43 42 45 45 44 46 53 48 45 42 37 37 40 38 34 36 38 45 49 47 39 28 23 17 10 4 7 12 25 35 44 44 48 48 53 58
99 106 108 105 94 81 75 67 57 49 39 42 42 46 41 42 49 50 45 36 28 27 30 30 26 29 33 37 44 46 41 34 25 18 12 6 1 7 16 22 29 34 40 42 43 48 56
106 110 108 103 88 77 65 53 46 42 40 41 45 49 38 43 50 47 37 29 19 20 25 20 21 24 30 37 42 41 35 30 22 16 11 7 3 6 9 16 25 31 36 42 46 51 54
114 112 109 97 82 67 53 43 38 34 42 44 52 42 45 52 48 40 31 20 15 15 16 12 20 22 29 35 37 34 29 25 19 14 10 6 5 7 11 17 23 27 39 47 48 44 48
110 105 101 86 71 57 44 35 28 29 38 44 38 39 54 52 46 38 29 22 11 12 9 11 18 23 28 30 32 30 27 23 20 14 12 4 4 10 13 18 24 26 33 44 47 47 51
107 100 91 75 63 48 35 24 18 21 31 28 30 44 53 49 44 36 31 21 12 9 4 12 16 21 23 25 28 27 28 25 20 14 12 10 4 7 11 18 23 29 31 38 43 45 53
107 95 80 65 53 37 26 18 13 20 21 22 36 47 55 48 41 38 33 23 11 2 5 10 16 19 20 21 24 26 28 27 23 19 12 12 12 7 7 13 20 19 25 28 32 36 38
101 88 70 55 44 30 20 13 15 20 24 33 41 48 51 47 40 38 34 23 13 2 6 10 18 21 21 22 22 26 27 30 27 23 18 15 10 9 8 3 3 11 15 15 16 14 27
92 79 61 47 34 20 15 12 19 18 29 39 50 45 45 44 43 40 34 25 16 5 6 11 19 22 22 24 23 26 28 33 33 29 25 22 19 14 11 10 8 7 2 9 8 11 14
84 68 52 38 23 12 8 21 21 24 35 44 46 50 48 42 42 41 33 27 18 9 8 17 19 22 27 27 28 30 33 38 40 39 36 33 26 22 18 18 13 8 6 3 4 6 9
75 59 43 27 9 5 11 19 28 33 43 46 53 47 46 48 47 41 33 28 20 12 14 19 20 23 28 30 35 36 38 38 42 46 45 43 39 34 27 23 19 19 14 10 5 4 10
68 50 35 16 13 19 19 22 29 46 44 49 52 45 46 52 47 40 33 28 22 17 16 20 20 23 28 36 38 40 41 42 43 45 48 47 47 44 40 37 31 25 21 17 16 14 11
60 42 23 9 11 18 23 27 36 47 46 49 42 41 53 50 44 38 33 27 23 20 19 21 19 21 27 33 35 40 41 43 46 46 46 46 44 44 43 42 42 37 31 26 18 13 12
50 33 11 13 16 19 24 31 42 48 47 46 48 51 54 49 42 37 31 26 22 24 21 22 23 21 27 29 34 37 41 44 44 45 43 41 42 41 40 39 40 35 34 32 30 29 24
41 26 11 18 17 21 30 37 46 53 47 45 43 50 50 48 42 36 31 27 22 23 20 21 20 22 24 26 28 32 36 39 41 41 40 39 37 37 36 36 35 34 32 33 28 24 23
35 18 10 18 10 11 23 30 41 43 43 36 48 50 49 45 39 34 29 26 22 20 19 16 15 17 17 21 23 26 29 32 34 34 34 36 38 34 38 37 35 36 32 33 31 28 23
27 7 13 15 12 11 18 25 36 41 41 50 52 51 47 44 37 32 28 23 20 17 16 14 11 12 12 14 17 20 23 27 29 31 33 36 39 38 36 37 41 42 42 41 37 41 40
18 3 14 13 8 10 25 28 43 47 49 51 52 48 45 41 34 29 25 21 19 15 13 11 8 6 7 10 14 19 21 23 25 28 31 34 36 39 39 42 44 43 43 43 44 47 48
15 9 15 17 17 18 36 46 47 49 51 50 48 46 41 38 32 28 23 20 17 15 12 9 6 3 4 7 11 15 19 22 25 28 30 34 37 37 40 44 43 43 45 49 50 53 55
Wind_Direction
299 301 293 290 284 283 280 278 277 275 277 277 277 276 275 275 276 278 281 287 288 290 290 295 295 298 300 301 301 305 311 309 299 293 294 294 295 291 286 280 268 253 244 233 228 220 212
310 310 303 304 299 293 282 279 275 270 271 271 271 272 273 273 272 278 281 282 284 287 289 292 293 298 300 300 301 308 312 308 301 297 300 301 297 294 285 271 252 243 234 227 221 213 209
317 318 312 311 304 299 295 283 277 275 272 270 269 268 268 269 270 274 278 281 284 284 286 289 294 297 299 298 303 309 312 305 302 302 303 303 300 291 278 259 245 236 229 222 215 209 203
321 319 319 317 312 309 301 289 282 277 275 271 268 267 266 266 266 269 273 277 280 281 284 287 290 295 295 300 305 310 309 303 304 306 308 304 296 285 270 253 239 228 224 219 210 205 202
318 318 319 317 315 314 307 297 286 280 274 270 269 269 265 267 266 266 268 272 275 279 282 284 290 293 296 302 307 311 305 306 309 313 311 304 294 281 266 245 230 225 217 208 204 204 200
322 320 321 318 316 312 307 296 290 285 274 268 268 269 267 267 265 266 268 270 272 275 277 284 289 292 299 304 310 306 307 311 317 315 307 302 295 281 259 235 219 215 207 203 201 200 199
322 321 319 318 317 316 313 303 292 285 279 262 265 264 265 267 269 266 266 267 272 271 277 281 286 291 300 305 308 306 310 320 321 315 308 306 298 278 243 215 203 204 202 199 201 196 188
321 320 319 319 319 316 312 306 291 281 282 267 260 263 264 263 265 263 264 266 268 273 275 279 285 293 302 309 306 312 321 324 321 316 314 313 295 266 229 209 200 202 198 198 204 197 194
322 321 322 321 319 316 311 301 293 280 281 271 252 258 260 260 260 255 260 264 267 270 276 281 286 298 307 309 309 318 328 324 322 321 321 312 292 263 218 198 198 200 197 200 202 199 197
325 325 322 320 319 314 310 301 294 286 279 267 253 252 256 256 248 246 249 258 265 271 275 280 291 299 314 309 318 327 326 327 329 326 323 316 302 246 207 195 194 198 198 199 203 203 199
323 320 319 319 318 314 308 299 294 285 277 260 244 243 247 245 235 235 245 257 259 266 273 282 293 313 314 321 326 331 332 336 338 334 335 339 298 193 172 187 195 197 196 199 204 202 203
321 319 323 322 319 314 306 298 290 280 257 248 231 240 239 228 224 229 239 243 249 260 270 283 304 326 319 329 330 334 339 341 346 345 354 357 286 196 188 185 190 192 195 199 200 199 203
322 324 325 324 321 314 307 297 284 269 240 227 226 232 226 208 220 226 225 228 234 255 273 287 329 333 330 332 333 339 348 352 356 359 9 16 78 179 185 179 187 189 192 199 204 202 207
325 327 328 325 321 315 307 294 280 260 235 225 222 228 209 200 210 207 207 201 216 250 270 312 346 339 342 335 341 345 359 1 7 17 31 56 122 153 168 183 181 189 193 199 204 206 205
331 330 329 325 320 316 307 296 279 259 228 231 237 213 200 200 204 194 184 171 193 251 284 356 0 354 342 343 347 347 6 13 20 24 47 74 120 162 175 182 188 190 195 199 204 204 206
335 332 330 326 320 314 308 290 260 238 224 234 215 196 199 202 197 183 165 159 174 242 340 15 15 0 349 354 353 354 15 29 29 36 51 63 91 152 171 187 192 198 198 204 210 211 211
337 332 329 326 319 313 305 270 237 210 199 200 193 191 192 198 190 172 150 151 161 236 25 22 29 13 5 7 359 11 24 35 44 41 53 68 80 89 183 195 205 212 215 213 220 222 220
338 332 330 326 321 313 291 246 192 184 194 199 191 188 188 192 176 157 143 148 137 142 16 37 39 26 19 18 18 25 36 40 48 54 54 63 77 86 80 91 226 237 250 252 257 252 236
339 332 331 328 326 313 269 167 151 158 185 181 183 188 185 185 163 147 143 141 131 113 31 42 40 41 35 34 35 40 47 48 51 57 62 64 60 63 64 79 87 72 57 283 288 283 270
337 335 331 333 330 319 177 136 140 159 169 175 173 184 181 181 158 144 144 136 127 110 52 40 34 50 48 47 47 51 54 59 60 60 60 60 61 59 53 47 43 36 47 56 52 291 279
339 335 335 342 350 142 178 133 140 151 166 168 173 180 175 158 148 146 143 132 127 114 78 54 34 36 52 63 63 60 63 66 64 63 65 66 64 61 56 51 38 28 29 22 353 260 262
341 334 342 357 121 121 154 153 144 151 148 165 172 177 169 149 148 146 138 134 126 123 90 68 48 37 41 46 57 62 62 63 63 66 64 62 65 64 63 62 60 55 39 17 0 348 315
341 338 354 51 121 123 147 157 149 150 151 167 176 171 153 147 147 142 137 136 130 124 103 81 61 46 43 46 46 51 57 60 61 59 60 63 64 62 59 59 55 53 54 44 31 13 345
341 348 40 94 120 136 141 151 150 152 159 170 170 159 150 146 145 144 141 138 134 128 118 98 78 57 54 49 50 55 57 58 60 64 63 62 60 62 61 60 57 49 47 46 50 52 37
346 355 104 104 125 142 155 154 154 159 165 170 167 157 149 145 148 148 147 142 136 131 130 116 102 84 71 61 55 55 56 56 58 60 61 60 59 59 60 58 56 52 47 46 42 34 28
353 357 111 97 123 135 161 154 160 166 167 172 161 151 149 149 150 150 148 145 140 138 140 128 112 100 86 73 64 56 51 52 57 59 57 56 54 54 53 51 48 45 40 46 44 38 31
358 4 94 116 142 140 170 165 168 173 168 158 152 151 151 152 154 155 150 150 142 141 145 141 124 107 93 77 64 54 46 45 44 44 43 44 42 44 41 36 37 34 32 29 28 24 24
359 91 131 150 163 171 184 175 168 171 162 156 152 152 156 152 156 158 153 155 149 148 140 140 138 116 82 67 55 44 42 36 35 33 31 31 31 29 30 28 25 23 20 20 20 19 16
350 151 152 179 203 194 184 177 173 168 160 155 155 156 159 156 161 161 160 165 158 156 146 138 130 117 53 31 33 29 28 22 22 23 22 22 20 18 17 16 15 13 13 10 8 7 3